User: anonymous   Login
Location: Unspecified
(0.0000°N, 0.0000°E)
Time: 18:55:58
(UTC+00:00)
Language:

FORMOSAT 3E - Orbit

View from above orbital plane
View from above orbital plane
View from above satellite
View from above satellite

Ground track
Ground track

The orbit data is extracted from the following two-line orbital elements,

1 29051U 06011E   19340.70154503 +.00000075 +00000-0 +45134-4 0  9990
2 29051 072.0041 129.5455 0070126 260.2564 099.0648 14.28779171714516
Epoch (UTC): 06 December 2019 16:50:13
Eccentricity: 0.0070126
inclination: 72.0041°
perigee height: 745 km
apogee height: 846 km
right ascension of ascending node: 129.5455°
argument of perigee: 260.2564°
revolutions per day: 14.28779171
mean anomaly at epoch: 99.0648°
orbit number at epoch: 71451

The dashed part of the orbit path shows where the satellite is in the earth's shadow,  

DLR